Temperature
12 11 11 11 11 11 11 11 11 11 11 11 11 11 11 11 11 11 11 10 10 10 10 10 10 10 10 10 9 9 9 9 9 9 9 9 8 8 8 8 8 8 8
11 11 11 11 11 11 11 11 11 11 11 11 10 10 10 10 10 10 10 10 10 10 10 10 10 10 9 9 9 9 9 9 8 8 8 8 8 8 8 8 8 8 8
11 11 10 10 10 10 10 10 10 10 10 10 10 10 10 10 10 10 10 10 10 10 10 9 9 9 9 9 9 9 8 8 8 8 8 7 7 7 7 7 7 7 7
11 11 11 10 10 10 10 10 10 10 10 10 10 10 10 10 10 9 10 9 9 9 9 9 9 9 9 9 9 8 8 8 8 8 7 7 7 6 6 6 6 6 6
11 11 11 10 10 10 10 10 10 10 10 10 10 9 9 9 9 9 9 9 9 9 9 9 9 8 8 8 8 8 8 8 7 7 7 7 6 6 5 5 6 6 6
11 10 10 10 10 10 10 10 10 10 9 9 9 9 9 9 9 8 8 8 8 8 8 8 8 8 8 8 8 8 7 7 7 7 7 6 6 6 5 5 5 5 5
10 10 10 9 9 9 9 9 9 9 9 9 9 9 9 9 8 8 8 8 8 8 8 8 8 8 8 7 7 7 7 7 6 6 6 6 6 5 5 4 4 4 4
10 10 9 9 9 9 9 9 9 9 9 9 9 9 9 8 8 8 8 8 7 7 7 7 7 7 7 7 7 7 7 6 6 6 6 5 5 5 5 4 4 3 3
10 9 9 9 9 9 9 9 9 9 9 9 9 8 8 8 8 8 7 7 7 7 7 7 7 7 7 6 6 6 6 6 6 5 5 5 5 4 4 4 3 3 2
9 9 9 8 9 9 9 9 9 9 9 8 8 8 8 8 7 7 7 7 7 7 7 6 6 6 6 6 6 6 5 5 5 5 5 4 4 4 4 3 3 3 2
9 9 8 8 8 8 8 8 8 8 8 8 8 8 8 8 7 7 7 6 6 6 6 6 6 6 6 5 5 5 5 5 5 4 4 4 4 4 3 3 3 2 2
9 9 8 8 8 8 8 8 8 8 8 8 8 7 7 7 7 7 6 6 6 6 6 5 5 5 5 5 5 5 5 4 4 4 4 4 3 3 3 3 2 2 2
9 9 8 8 8 8 8 8 8 8 8 7 7 7 7 7 6 6 6 6 6 5 5 5 5 5 5 4 4 4 4 4 4 4 4 3 3 3 3 2 2 2 1
9 9 8 8 8 8 8 8 7 7 7 7 7 7 6 6 6 6 5 5 5 5 5 5 5 4 4 4 4 4 4 4 3 3 3 3 3 3 2 2 2 1 1
9 8 8 8 7 7 7 7 7 7 7 7 6 6 6 6 5 5 5 5 5 5 4 4 4 4 4 4 4 4 3 3 3 3 3 3 2 2 2 2 1 1 0
9 8 8 7 7 7 7 7 7 7 6 6 6 6 5 5 5 5 5 4 4 4 4 4 4 4 4 3 3 3 3 3 3 3 3 2 2 2 1 1 1 0 -0
8 8 7 7 7 7 7 6 6 6 6 6 5 5 5 5 5 4 4 4 4 4 4 3 3 3 3 3 3 3 2 2 2 2 2 2 1 1 1 1 0 -0 -1
8 7 7 7 7 7 6 6 6 5 5 5 5 5 4 4 4 4 4 4 3 3 3 3 3 3 3 3 2 2 2 2 2 1 1 1 1 0 -0 -0 -1 -1 -1
8 7 7 7 7 6 6 5 5 5 5 5 4 4 4 4 4 4 4 3 3 3 3 2 2 2 2 2 2 1 1 1 1 1 0 -0 -0 -0 -1 -1 -1 -1 -1
7 7 7 6 6 6 5 5 5 5 4 4 4 4 4 3 3 3 3 3 2 2 2 2 2 2 2 1 1 1 0 0 0 -0 -0 -1 -1 -1 -2 -2 -2 -2 -2
7 6 6 6 6 5 5 5 5 4 4 4 4 3 3 3 3 2 2 2 2 2 2 2 2 1 1 1 1 0 -0 -1 -1 -1 -1 -1 -2 -2 -2 -2 -3 -3 -3
6 6 6 5 5 5 5 5 4 4 4 3 3 3 3 2 2 2 2 2 1 1 1 1 1 1 1 0 0 -0 -1 -1 -2 -2 -2 -2 -2 -3 -3 -3 -3 -3 -3
5 5 5 5 5 4 4 4 4 3 3 3 3 3 2 2 2 1 1 1 1 1 1 0 0 0 0 -0 -1 -1 -1 -2 -2 -2 -2 -3 -3 -3 -3 -3 -3 -3 -4
5 5 5 4 4 4 4 4 3 3 3 2 2 2 2 2 1 1 1 1 0 0 0 -0 -0 -1 -1 -1 -1 -2 -2 -2 -2 -3 -3 -3 -3 -3 -3 -3 -4 -4 -4
4 4 4 4 4 4 3 3 3 2 2 2 2 2 1 1 1 1 0 0 0 -0 -1 -1 -1 -2 -2 -2 -2 -3 -3 -3 -3 -3 -3 -3 -3 -4 -4 -4 -4 -4 -4
4 3 3 3 3 3 3 2 2 2 2 1 1 1 1 1 0 0 -0 -0 -0 -1 -1 -1 -2 -2 -2 -2 -2 -3 -3 -3 -4 -4 -4 -4 -4 -4 -4 -5 -5 -5 -5
Wind_Speed
5 5 5 5 5 6 7 7 7 6 5 4 3 3 3 2 2 3 3 3 3 3 3 2 2 3 2 2 2 2 2 2 2 2 2 2 1 2 1 2 2 3 3
6 6 5 5 5 6 6 7 6 6 5 4 3 3 3 3 2 2 3 2 2 2 1 2 1 2 2 2 2 2 2 2 2 2 2 2 2 1 1 1 1 1 2
7 7 6 6 5 5 6 6 6 6 6 5 3 3 3 2 1 1 2 1 1 2 2 2 1 1 1 1 1 1 1 1 2 1 1 1 1 2 1 2 1 1 0
7 7 7 6 6 5 5 6 5 5 5 5 4 4 3 3 3 2 2 2 2 1 1 0 1 1 0 0 1 1 1 0 1 1 0 1 1 1 3 2 1 1 1
6 7 6 6 6 6 5 5 5 4 5 5 5 3 2 2 2 2 2 2 2 2 2 1 1 1 1 1 1 1 1 1 1 1 1 2 1 2 2 3 3 2 2
6 6 6 7 6 6 6 6 5 4 4 4 4 4 3 2 2 2 2 2 2 2 3 2 1 1 1 1 1 1 2 2 2 1 1 1 1 2 2 3 3 4 3
6 6 7 7 7 7 6 6 6 5 4 4 4 4 3 2 2 2 2 1 1 1 2 2 2 2 2 2 1 2 2 2 2 2 2 2 2 2 2 3 4 4 3
6 6 6 7 7 7 6 6 6 5 4 4 4 3 3 2 1 1 1 1 1 1 1 1 1 2 2 2 2 2 3 2 3 3 3 2 3 2 2 3 3 4 4
7 7 6 6 7 7 6 6 5 4 4 4 3 3 3 2 2 2 1 1 1 1 1 1 2 2 2 2 2 2 3 3 3 3 3 3 3 3 3 3 3 3 4
6 7 6 6 5 6 5 5 5 4 4 3 3 2 2 2 2 2 2 2 2 1 2 2 2 2 2 3 3 3 3 3 4 3 4 4 3 3 3 3 3 4 5
7 6 6 6 6 6 6 5 5 4 4 3 2 2 2 1 1 2 2 2 2 2 2 3 3 3 3 3 3 4 4 4 4 4 4 5 4 4 3 3 3 4 4
7 7 7 7 6 6 5 5 4 4 3 3 2 2 2 1 2 2 2 2 2 2 3 3 3 3 4 4 4 5 5 5 5 5 5 6 5 5 4 4 5 5 5
7 7 7 7 6 6 6 5 4 4 3 3 2 2 2 2 2 2 2 2 2 2 3 3 4 4 4 4 5 5 5 5 5 5 6 6 5 6 5 5 5 5 6
7 7 7 7 6 6 6 5 5 4 4 3 3 2 2 2 2 2 2 2 2 3 3 4 4 4 4 5 5 4 5 5 5 5 6 6 6 7 6 6 6 5 5
6 6 6 6 6 6 5 5 4 4 4 3 3 2 2 2 2 2 2 2 3 3 4 4 4 4 4 4 5 4 5 5 6 6 6 7 8 10 9 7 6 5 5
5 6 6 6 5 5 5 4 4 4 3 3 3 2 2 2 2 2 2 3 3 3 3 4 5 5 5 7 9 7 5 5 6 7 7 7 8 11 14 15 14 11 9
4 4 4 5 5 5 4 4 4 4 3 3 3 2 2 2 3 3 3 3 4 4 4 5 5 5 6 9 11 10 6 6 7 7 7 8 8 10 7 11 14 14 17
3 3 3 3 3 3 3 3 3 4 4 3 3 3 3 3 2 3 4 4 4 4 4 5 5 5 7 11 11 11 7 6 7 7 8 8 8 8 8 7 8 8 9
2 3 3 3 3 4 4 4 3 3 3 3 3 3 3 3 3 4 4 4 3 4 5 5 5 6 8 11 12 12 5 6 7 7 7 8 8 13 14 9 8 9 8
2 2 3 3 3 3 4 4 4 3 4 4 3 3 3 3 4 5 5 4 4 5 5 5 6 7 8 11 12 11 5 6 6 6 7 11 12 14 14 9 8 9 9
2 3 3 2 3 3 4 4 4 4 4 3 3 3 3 4 5 4 4 4 4 4 5 6 6 6 8 10 12 11 5 5 6 6 6 7 14 16 16 13 9 12 11
2 2 2 2 2 4 4 4 4 4 3 3 3 4 4 4 3 4 4 4 4 4 5 5 6 5 6 8 10 12 12 11 7 7 7 8 15 16 17 13 13 16 14
3 3 3 3 3 4 5 5 4 3 3 3 4 4 4 4 4 4 5 4 4 4 5 5 6 6 5 6 11 13 13 14 9 8 12 15 17 16 12 14 16 13 7
3 3 4 4 4 4 5 5 4 4 4 4 4 4 4 4 4 4 4 4 4 5 5 5 6 6 6 5 5 5 7 10 9 9 11 16 16 14 13 12 10 7 6
3 3 4 5 5 4 4 4 4 4 4 4 4 4 4 4 4 4 4 5 6 6 7 6 6 6 8 9 12 9 7 6 8 9 7 7 7 7 6 6 6 6 6
3 3 4 5 5 4 4 4 4 4 4 4 4 4 3 3 4 4 5 8 8 11 12 11 10 9 12 15 16 16 16 17 16 11 8 8 8 8 7 7 7 6 6
Wind_Direction
152 141 139 131 133 131 133 138 136 141 140 140 144 144 145 138 119 115 106 79 63 56 39 31 39 26 33 21 18 17 6 6 358 350 324 289 210 163 135 89 72 64 58
144 147 142 133 140 140 143 141 141 145 147 148 148 136 124 125 128 119 106 102 80 74 53 47 48 41 25 14 17 18 1 350 26 20 345 341 341 320 175 133 126 72 52
155 154 150 146 147 147 150 148 145 144 144 139 124 105 88 77 115 154 143 131 96 89 66 30 36 39 41 16 0 4 10 336 334 59 71 21 304 324 290 221 170 157 235
152 155 153 152 150 145 136 131 136 139 142 142 146 151 160 174 184 163 148 141 140 122 116 28 3 5 15 327 302 10 338 319 293 315 316 196 192 281 312 303 276 247 246
156 153 149 145 140 135 134 135 136 139 145 148 153 157 162 170 151 135 150 160 159 167 167 206 226 233 225 227 278 312 304 273 259 284 305 303 288 239 237 279 297 309 280
147 144 142 138 137 136 138 142 143 149 149 149 154 163 168 174 164 169 181 187 178 174 177 196 218 225 219 218 230 238 266 262 260 263 266 255 256 273 263 271 289 292 285
145 145 145 144 141 142 148 150 150 157 157 157 161 163 169 179 190 191 192 190 189 186 191 183 207 226 225 223 217 223 248 255 250 249 253 252 248 254 269 273 285 291 285
147 147 150 147 146 149 154 156 157 161 159 157 161 161 163 165 180 187 188 205 208 200 173 181 221 238 240 232 215 226 236 241 247 258 259 258 263 259 245 243 269 294 290
149 149 148 148 150 153 157 158 156 149 148 150 150 155 160 162 177 198 200 214 214 197 182 188 230 244 246 235 220 227 235 234 235 241 247 250 257 256 251 239 220 239 281
157 152 148 148 144 144 146 145 143 144 142 144 152 149 156 161 175 192 207 211 216 198 210 213 230 239 238 230 229 237 239 238 242 233 236 244 246 246 243 236 236 227 242
165 159 153 146 142 140 142 142 144 137 137 141 144 150 169 172 186 210 217 212 213 220 234 231 236 242 246 241 230 233 235 238 247 248 241 246 243 243 245 239 237 238 238
162 158 152 146 145 149 149 148 145 141 147 149 151 166 174 183 209 217 219 213 221 227 235 240 242 242 244 241 235 239 240 238 242 246 246 249 249 245 243 240 241 242 239
160 161 158 158 160 160 157 155 154 153 151 150 157 169 181 198 217 214 217 219 223 234 240 245 248 247 248 245 243 239 243 244 243 244 245 248 245 250 246 243 245 247 253
167 169 170 169 165 162 160 159 160 157 156 160 171 187 197 203 203 202 209 218 225 235 239 242 247 248 251 248 248 244 246 250 251 249 248 248 243 247 249 251 249 247 252
178 178 177 171 163 162 163 162 162 159 163 171 183 198 198 199 195 206 215 221 231 239 241 246 250 249 250 248 247 249 251 253 259 260 256 254 250 249 253 256 250 245 249
183 180 173 166 166 166 168 166 168 165 164 178 192 191 205 207 205 218 227 234 242 246 248 252 254 255 260 262 266 265 256 255 258 264 263 261 258 258 262 262 260 252 248
176 177 175 171 168 169 169 173 172 161 166 184 189 192 207 218 218 221 233 240 242 246 252 252 252 255 258 266 271 270 265 255 257 258 262 269 265 267 258 263 265 262 258
177 172 168 163 159 153 151 154 155 161 174 185 196 201 206 220 226 229 237 243 242 245 249 252 252 255 260 268 273 275 269 258 257 257 257 261 264 262 263 259 260 257 259
172 169 163 152 151 152 154 152 163 171 180 193 205 210 209 219 232 240 247 247 247 254 254 256 256 259 266 270 274 277 262 259 262 262 262 263 264 270 274 269 264 268 266
118 126 124 125 142 158 151 159 180 186 199 203 207 209 211 223 235 241 248 249 245 250 256 261 256 254 260 270 276 277 260 262 268 269 265 270 273 276 278 269 262 267 269
108 117 127 146 170 164 157 179 194 208 204 194 206 219 222 228 236 243 247 250 249 253 258 265 267 261 263 275 279 280 272 263 271 276 276 272 279 281 281 277 264 265 272
147 151 160 185 188 174 172 194 211 207 187 193 214 228 232 235 237 240 251 248 244 254 263 268 275 270 269 275 278 280 279 281 274 274 275 275 281 283 282 280 271 272 276
190 188 189 200 207 195 184 204 215 190 186 206 228 236 236 237 235 236 246 253 249 250 260 261 270 278 273 276 283 284 285 286 283 277 278 283 285 286 283 277 276 276 266
209 203 200 211 220 212 204 209 206 190 195 220 235 236 237 245 245 244 241 244 247 251 257 261 268 277 280 276 275 273 280 284 283 281 280 283 284 281 275 275 275 262 250
225 213 215 222 226 218 216 214 204 192 207 224 235 240 239 242 248 250 245 248 247 247 255 260 260 270 279 278 280 285 282 279 275 284 282 278 276 271 266 262 258 252 250
222 224 227 230 231 222 223 221 209 201 210 229 237 239 242 247 249 259 278 267 261 271 270 270 271 273 275 285 289 290 290 291 289 289 280 276 271 269 267 267 263 250 246
Height
1496 1498 1499 1500 1502 1503 1505 1507 1509 1511 1513 1515 1516 1518 1520 1522 1523 1524 1525 1525 1526 1527 1527 1527 1527 1527 1527 1527 1527 1526 1526 1525 1525 1524 1523 1523 1523 1522 1522 1521 1520 1520 1519
1494 1496 1497 1499 1500 1501 1503 1505 1507 1510 1512 1514 1515 1517 1518 1520 1521 1522 1523 1524 1524 1525 1525 1525 1526 1526 1526 1525 1525 1525 1524 1524 1523 1523 1522 1521 1522 1521 1520 1520 1519 1518 1517
1491 1493 1495 1497 1499 1500 1502 1503 1506 1508 1510 1512 1514 1516 1517 1518 1520 1521 1521 1522 1522 1523 1523 1523 1524 1524 1524 1523 1523 1523 1523 1522 1522 1522 1522 1521 1520 1519 1518 1517 1517 1516 1515
1490 1492 1493 1495 1497 1499 1500 1502 1505 1507 1509 1511 1512 1514 1515 1517 1518 1519 1519 1520 1520 1520 1521 1521 1521 1522 1521 1521 1521 1521 1521 1520 1520 1520 1520 1520 1519 1518 1516 1515 1514 1513 1512
1488 1490 1492 1494 1496 1498 1499 1501 1503 1505 1508 1509 1510 1512 1513 1515 1516 1516 1517 1517 1518 1518 1518 1519 1519 1519 1519 1519 1519 1519 1518 1518 1518 1518 1517 1517 1516 1515 1514 1512 1511 1510 1509
1487 1489 1490 1492 1495 1496 1498 1500 1502 1504 1505 1507 1508 1510 1511 1512 1513 1514 1514 1515 1515 1515 1516 1516 1516 1516 1516 1516 1516 1516 1516 1515 1515 1515 1514 1514 1513 1512 1511 1509 1507 1506 1505
1485 1487 1489 1491 1493 1494 1496 1498 1500 1502 1504 1505 1506 1508 1509 1510 1511 1511 1512 1512 1512 1512 1513 1513 1513 1513 1513 1513 1513 1513 1513 1512 1512 1512 1511 1511 1510 1510 1508 1507 1504 1502 1501
1484 1486 1488 1489 1491 1493 1495 1496 1498 1500 1502 1503 1504 1505 1507 1508 1508 1509 1509 1509 1509 1509 1510 1510 1510 1510 1510 1510 1510 1510 1509 1509 1509 1508 1508 1507 1507 1506 1505 1504 1502 1499 1497
1483 1485 1487 1488 1489 1491 1493 1495 1497 1498 1500 1501 1502 1503 1504 1505 1505 1506 1506 1506 1506 1506 1506 1506 1507 1507 1506 1506 1506 1505 1505 1505 1505 1504 1504 1503 1502 1502 1501 1500 1499 1498 1494
1482 1484 1485 1487 1488 1490 1492 1494 1495 1497 1498 1499 1500 1501 1501 1502 1502 1502 1503 1503 1503 1503 1503 1503 1503 1503 1503 1502 1502 1502 1501 1501 1500 1500 1499 1498 1498 1497 1496 1495 1494 1493 1491
1480 1482 1484 1486 1487 1489 1490 1492 1493 1495 1496 1497 1497 1498 1498 1499 1499 1499 1499 1499 1499 1499 1499 1499 1499 1499 1499 1499 1498 1498 1497 1496 1496 1495 1494 1494 1493 1492 1491 1490 1489 1488 1487
1479 1481 1483 1484 1486 1487 1489 1490 1491 1492 1494 1494 1495 1495 1495 1495 1495 1495 1495 1495 1496 1496 1496 1495 1495 1495 1495 1494 1494 1493 1493 1492 1491 1490 1489 1489 1488 1487 1486 1485 1483 1482 1481
1478 1480 1481 1483 1484 1486 1487 1488 1489 1490 1491 1492 1492 1492 1491 1491 1491 1491 1491 1492 1492 1492 1492 1491 1491 1491 1491 1490 1490 1489 1488 1487 1486 1485 1484 1484 1482 1481 1480 1479 1478 1476 1475
1476 1478 1479 1481 1482 1484 1485 1486 1487 1487 1488 1488 1488 1488 1488 1488 1488 1488 1488 1488 1488 1488 1488 1487 1487 1487 1486 1486 1485 1484 1483 1482 1481 1480 1479 1478 1477 1475 1475 1473 1472 1471 1469
1474 1476 1477 1479 1480 1481 1482 1483 1484 1484 1485 1485 1485 1485 1484 1484 1484 1484 1484 1484 1484 1484 1484 1483 1483 1482 1482 1481 1480 1479 1478 1477 1476 1475 1474 1473 1471 1470 1469 1467 1466 1465 1463
1472 1473 1475 1476 1477 1478 1479 1480 1480 1481 1481 1481 1481 1481 1481 1481 1481 1481 1481 1481 1481 1480 1480 1479 1479 1478 1478 1477 1476 1474 1473 1471 1470 1469 1467 1466 1465 1464 1463 1461 1460 1459 1457
1469 1471 1472 1473 1474 1475 1476 1477 1477 1477 1477 1477 1477 1477 1477 1477 1477 1477 1477 1477 1477 1476 1476 1475 1474 1473 1473 1472 1471 1469 1468 1466 1464 1463 1461 1460 1459 1457 1456 1454 1453 1451 1450
1467 1468 1469 1470 1471 1472 1473 1473 1474 1474 1474 1474 1474 1474 1474 1474 1474 1474 1473 1473 1473 1472 1471 1471 1470 1469 1468 1467 1465 1464 1462 1460 1458 1457 1455 1453 1451 1450 1449 1447 1445 1443 1443
1465 1466 1467 1468 1468 1469 1469 1470 1470 1470 1470 1470 1471 1471 1471 1470 1470 1470 1469 1469 1468 1467 1467 1466 1464 1463 1462 1461 1459 1458 1455 1453 1451 1450 1448 1446 1444 1443 1442 1440 1438 1436 1435
1462 1463 1464 1465 1465 1466 1466 1466 1466 1467 1467 1467 1467 1468 1467 1467 1466 1466 1465 1464 1464 1463 1462 1460 1459 1458 1456 1455 1453 1452 1449 1447 1445 1443 1441 1440 1438 1436 1435 1433 1431 1429 1427
1461 1461 1462 1462 1462 1463 1463 1463 1463 1463 1464 1464 1464 1464 1463 1463 1462 1461 1461 1460 1459 1458 1457 1455 1454 1452 1451 1449 1448 1446 1443 1441 1438 1436 1434 1433 1431 1430 1428 1427 1425 1423 1421
1458 1459 1459 1459 1459 1460 1460 1460 1460 1460 1460 1460 1460 1460 1459 1459 1458 1457 1456 1455 1454 1453 1451 1449 1448 1446 1445 1443 1441 1440 1438 1435 1433 1430 1428 1426 1425 1423 1421 1419 1418 1416 1415
1456 1456 1456 1456 1456 1456 1456 1456 1456 1456 1456 1456 1456 1456 1455 1455 1454 1453 1451 1450 1449 1448 1446 1444 1442 1440 1439 1437 1436 1433 1431 1429 1427 1424 1422 1420 1418 1416 1414 1412 1411 1410 1408
1452 1452 1452 1452 1452 1452 1452 1452 1452 1452 1452 1452 1451 1451 1450 1450 1449 1448 1447 1445 1444 1442 1441 1439 1436 1434 1432 1430 1429 1426 1424 1422 1420 1417 1415 1413 1411 1409 1406 1405 1404 1403 1401
1448 1448 1448 1448 1448 1448 1448 1448 1448 1448 1447 1447 1447 1446 1446 1445 1444 1443 1442 1440 1439 1438 1436 1433 1431 1428 1426 1424 1423 1421 1418 1416 1413 1411 1408 1405 1403 1401 1399 1398 1397 1395 1394
1443 1443 1443 1443 1443 1443 1442 1443 1443 1443 1443 1442 1442 1441 1441 1440 1438 1437 1436 1434 1434 1432 1430 1428 1426 1423 1421 1418 1416 1414 1412 1409 1407 1405 1401 1399 1396 1394 1392 1391 1390 1389 1388